Weather History for Kenosha, WI

Change the Weather History Date:

Tuesday, January 29, 2013

  Actual Average Record
Temperature  
Mean Temperature 50 °F -  
Max Temperature 62 °F 29 °F 62 °F (2013)
Min Temperature 37 °F 13 °F -20 °F (1966)
Degree Days  
Heating Degree Days 16    
Moisture  
Dew Point 47 °F    
Average Humidity 92    
Maximum Humidity 100    
Minimum Humidity 82    
Precipitation  
Precipitation 1.50 in - - ()
Sea Level Pressure  
Sea Level Pressure 29.56 in    
Wind  
Wind Speed 8 mph (South)    
Max Wind Speed 17 mph    
Max Gust Speed 24 mph    
Visibility 2 miles    
Events Fog , Rain , Thunderstorm    
Averages and records for this station are not official NWS values.
T = Trace of Precipitation, MM = Missing Value Source: NWS Daily Summary

Daily Weather History Graph

Daily Weather History Graph

Search for Another Location

Airport:

Trip Planner

Search our weather history database for the weather conditions in past years. The results will help you decide how hot, cold, wet, or windy it might be!

Date:

Astronomy

Jan. 29, 2013 Rise Set
Actual Time 7:08 AM CST 5:01 PM CST
Civil Twilight 6:38 AM CST 5:31 PM CST
Nautical Twilight 6:04 AM CST 6:05 PM CST
Astronomical Twilight 5:31 AM CST 6:39 PM CST
Moon 8:02 PM CST (1/29) 8:00 AM CST (1/29)
Length of Visible Light 10h 53m
Length of Day
9h 53m
Waning Gibbous, 93% of the Moon is Illuminated
Jan 29
Waning Gibbous
Feb 3
Last Quarter
Feb 10
New
Feb 17
First Quarter
Feb 25
Full

Hourly Weather History & Observations

Time (CST) Temp. Windchill Dew Point Humidity Pressure Visibility Wind Dir Wind Speed Gust Speed Precip Events Conditions
12:08 AM 37.4 °F 29.8 °F 35.6 °F 93% 29.83 in 1.0 mi ESE 11.5 mph - 0.03 in Rain , Thunderstorm Thunderstorms and Rain
12:37 AM 37.4 °F 29.3 °F 35.6 °F 93% 29.78 in 3.0 mi ESE 12.7 mph - 0.17 in Rain , Thunderstorm Light Rain
12:53 AM 37.9 °F 29.2 °F 36.0 °F 93% 29.78 in 5.0 mi ESE 15.0 mph - 0.19 in Thunderstorm Overcast
1:00 AM 37.4 °F 29.8 °F 35.6 °F 93% 29.77 in 1.8 mi ESE 11.5 mph - N/A Thunderstorm Overcast
1:04 AM 37.4 °F 30.8 °F 37.4 °F 100% 29.77 in 0.8 mi SE 9.2 mph 18.4 mph N/A   Overcast
1:17 AM 37.4 °F 32.8 °F 37.4 °F 100% 29.77 in 0.2 mi East 5.8 mph - N/A Fog Fog
1:53 AM 39.0 °F 33.4 °F 37.9 °F 96% 29.76 in 0.2 mi ESE 8.1 mph - 0.01 in Fog Fog
2:49 AM 39.2 °F 37.0 °F 37.4 °F 93% 29.69 in 0.2 mi ESE 3.5 mph - 0.04 in Fog , Thunderstorm Fog
2:53 AM 39.0 °F 36.8 °F 37.9 °F 96% 29.71 in 0.2 mi ESE 3.5 mph - 0.04 in Fog , Thunderstorm Fog
3:04 AM 39.2 °F - 37.4 °F 93% 29.68 in 0.2 mi Calm Calm - N/A Fog Fog
3:53 AM 39.0 °F 36.8 °F 37.0 °F 93% 29.68 in 0.2 mi NNW 3.5 mph - N/A Fog Fog
5:53 AM 39.9 °F 37.8 °F 39.0 °F 97% 29.65 in 0.5 mi East 3.5 mph - N/A Fog Fog
6:02 AM 39.2 °F - 39.2 °F 100% 29.63 in 0.5 mi Calm Calm - N/A Fog Fog
6:36 AM 41.0 °F - 37.4 °F 87% 29.63 in 1.2 mi Calm Calm - N/A   Overcast
6:41 AM 41.0 °F - 39.2 °F 93% 29.62 in 2.0 mi Calm Calm - N/A   Overcast
6:49 AM 42.8 °F 41.1 °F 41.0 °F 93% 29.62 in 0.8 mi SSW 3.5 mph - N/A   Overcast
6:53 AM 44.1 °F - 42.1 °F 93% 29.64 in 0.5 mi Calm Calm - N/A Fog Fog
7:06 AM 46.4 °F 43.5 °F 44.6 °F 93% 29.62 in 1.0 mi South 5.8 mph - N/A   Overcast
7:40 AM 55.4 °F - 55.4 °F 100% 29.63 in 1.0 mi WSW 6.9 mph - 0.18 in Rain Heavy Rain
7:53 AM 55.9 °F - 54.0 °F 93% 29.65 in 1.0 mi West 5.8 mph - 0.22 in Rain Light Rain
8:11 AM 55.4 °F - 55.4 °F 100% 29.63 in 1.0 mi SW 6.9 mph - 0.00 in   Overcast
8:17 AM 55.4 °F - 55.4 °F 100% 29.63 in 3.0 mi SW 8.1 mph - 0.00 in   Overcast
8:53 AM 57.0 °F - 55.0 °F 93% 29.62 in 4.0 mi SSW 10.4 mph - 0.01 in Rain Light Rain
9:53 AM 60.1 °F - 55.9 °F 86% 29.62 in 4.0 mi SW 17.3 mph 23.0 mph 0.00 in   Overcast
10:21 AM 60.8 °F - 55.4 °F 82% 29.61 in 5.0 mi SSW 17.3 mph 24.2 mph N/A   Haze
10:36 AM 60.8 °F - 55.4 °F 82% 29.59 in 6.0 mi SSW 13.8 mph 21.9 mph N/A   Haze
10:53 AM 61.0 °F - 55.9 °F 83% 29.60 in 6.0 mi SSW 12.7 mph - N/A   Haze
10:58 AM 60.8 °F - 55.4 °F 82% 29.59 in 6.0 mi SSW 12.7 mph - N/A   Haze
11:53 AM 61.0 °F - 55.9 °F 83% 29.58 in 5.0 mi SSW 9.2 mph - N/A   Haze
12:53 PM 62.1 °F - 57.0 °F 84% 29.55 in 5.0 mi SSW 13.8 mph 20.7 mph N/A   Haze
1:53 PM 62.1 °F - 57.0 °F 84% 29.52 in 5.0 mi SSW 10.4 mph - N/A   Haze
2:53 PM 61.0 °F - 55.9 °F 83% 29.52 in 5.0 mi SSW 9.2 mph - N/A   Haze
3:09 PM 60.8 °F - 55.4 °F 82% 29.51 in 1.8 mi SSW 6.9 mph - 0.03 in Rain Rain
3:30 PM 60.8 °F - 57.2 °F 88% 29.50 in 2.0 mi South 8.1 mph - 0.06 in Rain Light Rain
3:53 PM 59.0 °F - 57.0 °F 93% 29.50 in 2.5 mi South 6.9 mph - 0.06 in Rain Light Rain
3:59 PM 59.0 °F - 55.4 °F 88% 29.49 in 1.0 mi South 6.9 mph - 0.04 in Rain Heavy Rain
4:04 PM 59.0 °F - 57.2 °F 94% 29.49 in 0.8 mi SW 5.8 mph - 0.06 in Rain Rain
4:40 PM 57.2 °F - 53.6 °F 88% 29.49 in 2.0 mi West 8.1 mph - 0.26 in Rain Light Rain
4:53 PM 55.9 °F - 53.1 °F 90% 29.49 in 3.0 mi WNW 5.8 mph - 0.27 in Rain Light Rain
5:00 PM 55.4 °F - 53.6 °F 94% 29.51 in 4.0 mi SW 6.9 mph - 0.01 in Rain Light Rain
5:06 PM 55.4 °F - 51.8 °F 88% 29.49 in 1.8 mi West 5.8 mph - 0.05 in Rain Rain
5:21 PM 55.4 °F - 53.6 °F 94% 29.47 in 2.0 mi NNW 4.6 mph - 0.09 in Rain Rain
5:39 PM 55.4 °F - 51.8 °F 88% 29.47 in 4.0 mi Calm Calm - 0.10 in Rain Light Rain
5:53 PM 55.0 °F - 53.1 °F 93% 29.48 in 4.0 mi Calm Calm - 0.11 in Rain Light Rain
5:59 PM 55.4 °F - 53.6 °F 94% 29.49 in 2.5 mi Calm Calm - 0.02 in Rain Rain
6:06 PM 53.6 °F - 51.8 °F 94% 29.48 in 1.8 mi NNW 3.5 mph - 0.04 in Rain Rain
6:14 PM 53.6 °F - 51.8 °F 94% 29.48 in 2.0 mi NNW 4.6 mph - 0.05 in Rain Rain
6:29 PM 53.6 °F - 51.8 °F 94% 29.47 in 1.0 mi North 3.5 mph - 0.07 in Rain Light Rain
6:50 PM 53.6 °F - 51.8 °F 94% 29.47 in 0.5 mi Calm Calm - 0.10 in Fog , Rain Light Rain
6:53 PM 53.1 °F - 51.1 °F 93% 29.48 in 0.5 mi Calm Calm - 0.10 in Fog , Rain Light Rain
7:04 PM 51.8 °F - 48.2 °F 88% 29.48 in 0.2 mi South 3.5 mph - 0.02 in Fog , Rain Light Rain
7:53 PM 52.0 °F - 50.0 °F 93% 29.46 in 0.2 mi Calm Calm - 0.10 in Fog , Rain Light Rain
7:57 PM 51.8 °F - 50.0 °F 94% 29.46 in 0.5 mi Calm Calm - 0.00 in Fog , Rain Light Rain
8:11 PM 51.8 °F - 50.0 °F 94% 29.46 in 0.2 mi Calm Calm - 0.02 in Fog , Rain Light Rain
8:19 PM 51.8 °F - 50.0 °F 94% 29.46 in 0.5 mi Calm Calm - 0.04 in Fog , Rain Rain
8:40 PM 48.2 °F - 46.4 °F 93% 29.46 in 0.5 mi NE 12.7 mph 18.4 mph 0.08 in Fog , Rain Rain
8:45 PM 48.2 °F - 46.4 °F 93% 29.46 in 1.5 mi NE 11.5 mph 18.4 mph 0.09 in Rain Rain
8:47 PM 48.2 °F - 44.6 °F 87% 29.46 in 3.0 mi NE 10.4 mph - 0.09 in Rain Rain
8:53 PM 46.9 °F - 45.0 °F 93% 29.46 in 3.0 mi NE 9.2 mph - 0.11 in Rain Rain
9:30 PM 44.6 °F 39.2 °F 42.8 °F 93% 29.46 in 3.0 mi NNE 10.4 mph - 0.08 in Rain Rain
9:40 PM 44.6 °F 40.2 °F 42.8 °F 93% 29.45 in 2.5 mi NNE 8.1 mph - 0.11 in Rain Rain
9:53 PM 44.1 °F 39.0 °F 42.1 °F 93% 29.44 in 2.5 mi NNE 9.2 mph - 0.14 in Rain Rain
10:01 PM 44.6 °F 40.2 °F 42.8 °F 93% 29.44 in 3.0 mi NNE 8.1 mph - 0.01 in Rain Light Rain
10:26 PM 42.8 °F 38.0 °F 41.0 °F 93% 29.44 in 4.0 mi NNE 8.1 mph - 0.04 in Rain Light Rain
10:53 PM 42.1 °F 37.1 °F 39.9 °F 92% 29.44 in 4.0 mi NE 8.1 mph - 0.08 in Rain Light Rain
11:04 PM 42.8 °F 38.0 °F 39.2 °F 87% 29.45 in 4.0 mi North 8.1 mph - 0.02 in Rain Light Rain
11:32 PM 41.0 °F 35.8 °F 39.2 °F 93% 29.44 in 5.0 mi North 8.1 mph - 0.05 in Rain Light Rain
11:53 PM 39.9 °F 33.4 °F 37.9 °F 93% 29.43 in 7.0 mi North 10.4 mph - 0.06 in Rain Light Rain